When you browse on this site, cookies collect data to enhance your experience and personalize the content and advertising you see.
Visit our Privacy Policy to learn more. By continuing to use the site, you agree to this use of cookies and data.
  • In United Kingdom
  • List of Countries
  • For 7 days
  • Water Temperature
  • Satellite Maps
  • Weather Map
  • Weather Widgets
  • user-avatar
    Login

    Hourly Weather Boma

    Today, 22 May, Wednesday

    Time Temperature Precipitation Wind Pressure Humidity
    00:00 +21°C° 0 mm 0 mps 700 mmHg 88%
    01:00 +20°C° 0 mm 0 mps 701 mmHg 92%
    02:00 +20°C° 0 mm 0 mps 700 mmHg 94%
    03:00 +20°C° 0 mm 0 mps 700 mmHg 96%
    04:00 +19°C° 0 mm 0 mps 700 mmHg 98%
    05:00 +20°C° 0 mm 0 mps 700 mmHg 95%
    06:00 +20°C° 0 mm 0 mps 700 mmHg 93%
    07:00 +21°C° 0 mm 0 mps 701 mmHg 90%
    08:00 +23°C° 0 mm 0 mps 701 mmHg 79%
    09:00 +28°C° 0 mm 1 mps 702 mmHg 68%
    10:00 +30°C° 0 mm 1 mps 702 mmHg 57%
    11:00 +28°C° 1.2 mm 0 mps 702 mmHg 65%
    12:00 +27°C° 1.2 mm 0 mps 701 mmHg 73%
    13:00 +27°C° 1.2 mm 0 mps 701 mmHg 81%
    14:00 +27°C° 1.3 mm 0 mps 700 mmHg 81%
    15:00 +27°C° 1.3 mm 0 mps 700 mmHg 81%
    16:00 +26°C° 1.3 mm 0 mps 699 mmHg 80%
    17:00 +25°C° 0 mm 0 mps 699 mmHg 84%
    18:00 +24°C° 0 mm 0 mps 699 mmHg 88%
    19:00 +22°C° 0 mm 0 mps 700 mmHg 92%
    20:00 +22°C° 0 mm 0 mps 700 mmHg 93%
    21:00 +22°C° 0 mm 0 mps 700 mmHg 93%
    22:00 +21°C° 0 mm 0 mps 700 mmHg 94%
    23:00 +21°C° 0 mm 0 mps 700 mmHg 94%

    Tomorrow, 23 May, Thursday

    Time Temperature Precipitation Wind Pressure Humidity
    00:00 +21°C° 0 mm 0 mps 700 mmHg 94%
    01:00 +21°C° 0 mm 0 mps 700 mmHg 94%
    02:00 +20°C° 0 mm 0 mps 700 mmHg 95%
    03:00 +20°C° 0 mm 0 mps 700 mmHg 95%
    04:00 +20°C° 0 mm 0 mps 699 mmHg 96%
    05:00 +20°C° 0 mm 0 mps 700 mmHg 95%
    06:00 +21°C° 0 mm 0 mps 700 mmHg 94%
    07:00 +21°C° 0 mm 0 mps 701 mmHg 93%
    08:00 +22°C° 0 mm 0 mps 701 mmHg 86%
    09:00 +26°C° 0 mm 1 mps 701 mmHg 79%
    10:00 +27°C° 0 mm 1 mps 702 mmHg 72%
    11:00 +30°C° 0 mm 1 mps 701 mmHg 63%
    12:00 +30°C° 0 mm 0 mps 701 mmHg 53%
    13:00 +33°C° 0 mm 0 mps 701 mmHg 43%
    14:00 +33°C° 0 mm 0 mps 700 mmHg 43%
    15:00 +32°C° 0 mm 0 mps 699 mmHg 43%
    16:00 +32°C° 0 mm 0 mps 699 mmHg 42%
    17:00 +30°C° 0 mm 0 mps 699 mmHg 52%
    18:00 +27°C° 0 mm 0 mps 699 mmHg 61%
    19:00 +25°C° 0 mm 0 mps 699 mmHg 70%
    20:00 +24°C° 0.5 mm 0 mps 699 mmHg 77%
    21:00 +23°C° 0.5 mm 0 mps 700 mmHg 84%
    22:00 +22°C° 0.5 mm 0 mps 700 mmHg 90%
    23:00 +21°C° 0.1 mm 0 mps 700 mmHg 92%

    Day after tomorrow, 24 May, Friday

    Time Temperature Precipitation Wind Pressure Humidity
    00:00 +21°C° 0.1 mm 0 mps 700 mmHg 93%
    01:00 +23°C° 0.1 mm 1 mps 699 mmHg 95%
    02:00 +21°C° 1 mm 0 mps 699 mmHg 96%
    03:00 +20°C° 1 mm 0 mps 699 mmHg 97%
    04:00 +20°C° 1 mm 0 mps 699 mmHg 99%
    05:00 +20°C° 0.5 mm 0 mps 699 mmHg 99%
    06:00 +23°C° 0.5 mm 1 mps 700 mmHg 98%
    07:00 +23°C° 0.5 mm 1 mps 700 mmHg 98%
    08:00 +24°C° 0 mm 1 mps 701 mmHg 92%
    09:00 +26°C° 0 mm 1 mps 701 mmHg 86%
    10:00 +27°C° 0 mm 1 mps 702 mmHg 80%
    11:00 +29°C° 0 mm 1 mps 701 mmHg 70%
    12:00 +31°C° 0 mm 1 mps 701 mmHg 61%
    13:00 +33°C° 0 mm 1 mps 701 mmHg 51%
    14:00 +33°C° 0.2 mm 1 mps 700 mmHg 54%
    15:00 +32°C° 0.2 mm 1 mps 699 mmHg 57%
    16:00 +32°C° 0.2 mm 1 mps 699 mmHg 60%
    17:00 +29°C° 2 mm 1 mps 699 mmHg 72%
    18:00 +27°C° 2 mm 1 mps 699 mmHg 84%
    19:00 +24°C° 2 mm 1 mps 699 mmHg 96%
    20:00 +24°C° 0 mm 1 mps 700 mmHg 96%
    21:00 +24°C° 0 mm 1 mps 700 mmHg 97%
    22:00 +23°C° 0 mm 1 mps 700 mmHg 97%
    23:00 +23°C° 0 mm 1 mps 700 mmHg 97%

    25 May, Saturday

    Time Temperature Precipitation Wind Pressure Humidity
    00:00 +23°C° 0 mm 1 mps 700 mmHg 98%
    01:00 +21°C° 0 mm 0 mps 700 mmHg 98%
    02:00 +20°C° 0.1 mm 0 mps 700 mmHg 98%
    03:00 +20°C° 0.1 mm 0 mps 700 mmHg 99%
    04:00 +20°C° 0.1 mm 0 mps 700 mmHg 99%
    05:00 +23°C° 0.1 mm 1 mps 700 mmHg 99%
    06:00 +23°C° 0.1 mm 1 mps 700 mmHg 99%
    07:00 +23°C° 0.1 mm 1 mps 701 mmHg 99%
    08:00 +24°C° 0.1 mm 1 mps 701 mmHg 95%
    09:00 +23°C° 0.1 mm 0 mps 701 mmHg 91%
    10:00 +24°C° 0.1 mm 0 mps 702 mmHg 87%
    11:00 +27°C° 0.1 mm 0 mps 702 mmHg 74%
    12:00 +30°C° 0.1 mm 0 mps 701 mmHg 61%
    13:00 +33°C° 0.1 mm 0 mps 701 mmHg 49%
    14:00 +32°C° 0.9 mm 1 mps 701 mmHg 62%
    15:00 +29°C° 0.9 mm 2 mps 700 mmHg 75%
    16:00 +26°C° 0.9 mm 2 mps 699 mmHg 87%
    17:00 +25°C° 0 mm 1 mps 699 mmHg 90%
    18:00 +25°C° 0 mm 1 mps 700 mmHg 92%
    19:00 +22°C° 0 mm 0 mps 700 mmHg 95%
    20:00 +22°C° 0 mm 0 mps 700 mmHg 96%
    21:00 +21°C° 0 mm 0 mps 701 mmHg 97%
    22:00 +21°C° 0 mm 0 mps 701 mmHg 98%
    23:00 +21°C° 0 mm 0 mps 701 mmHg 98%

    26 May, Sunday

    Time Temperature Precipitation Wind Pressure Humidity
    00:00 +21°C° 0 mm 0 mps 700 mmHg 99%
    01:00 +20°C° 0 mm 0 mps 700 mmHg 99%
    02:00 +20°C° 0 mm 0 mps 700 mmHg 99%
    03:00 +20°C° 0 mm 0 mps 700 mmHg 99%
    04:00 +20°C° 0 mm 0 mps 699 mmHg 99%
    05:00 +20°C° 0 mm 0 mps 700 mmHg 98%
    06:00 +20°C° 0 mm 0 mps 700 mmHg 97%
    07:00 +21°C° 0 mm 0 mps 701 mmHg 96%
    08:00 +23°C° 0 mm 0 mps 701 mmHg 85%
    09:00 +28°C° 0 mm 1 mps 702 mmHg 73%
    10:00 +30°C° 0 mm 1 mps 702 mmHg 61%
    11:00 +31°C° 0 mm 1 mps 702 mmHg 55%
    12:00 +33°C° 0 mm 1 mps 701 mmHg 49%
    13:00 +34°C° 0 mm 1 mps 700 mmHg 43%
    14:00 +33°C° 0 mm 1 mps 700 mmHg 49%
    15:00 +31°C° 0 mm 1 mps 699 mmHg 55%
    16:00 +30°C° 0 mm 1 mps 698 mmHg 61%
    17:00 +29°C° 0.2 mm 1 mps 699 mmHg 67%
    18:00 +27°C° 0.2 mm 1 mps 699 mmHg 74%
    19:00 +26°C° 0.2 mm 1 mps 699 mmHg 80%
    20:00 +25°C° 2.8 mm 1 mps 700 mmHg 86%
    21:00 +24°C° 2.8 mm 1 mps 700 mmHg 92%
    22:00 +21°C° 2.8 mm 0 mps 700 mmHg 98%
    23:00 +21°C° 0.3 mm 0 mps 700 mmHg 98%

    27 May, Monday

    Time Temperature Precipitation Wind Pressure Humidity
    00:00 +21°C° 0.3 mm 0 mps 700 mmHg 98%
    01:00 +21°C° 0.3 mm 0 mps 700 mmHg 98%
    02:00 +20°C° 0.8 mm 0 mps 699 mmHg 99%
    03:00 +20°C° 0.8 mm 0 mps 699 mmHg 99%
    04:00 +20°C° 0.8 mm 0 mps 699 mmHg 99%
    05:00 +20°C° 0 mm 0 mps 700 mmHg 99%
    06:00 +21°C° 0 mm 0 mps 700 mmHg 98%
    07:00 +21°C° 0 mm 0 mps 701 mmHg 98%
    08:00 +23°C° 0 mm 0 mps 701 mmHg 88%
    09:00 +27°C° 0 mm 1 mps 701 mmHg 77%
    10:00 +29°C° 0 mm 1 mps 702 mmHg 67%
    11:00 +31°C° 0 mm 1 mps 701 mmHg 59%
    12:00 +33°C° 0 mm 1 mps 701 mmHg 51%
    13:00 +35°C° 0 mm 1 mps 700 mmHg 43%
    14:00 +33°C° 0.1 mm 1 mps 700 mmHg 49%
    15:00 +32°C° 0.1 mm 1 mps 699 mmHg 56%
    16:00 +30°C° 0.1 mm 1 mps 698 mmHg 62%
    17:00 +28°C° 1.6 mm 1 mps 699 mmHg 73%
    18:00 +26°C° 1.6 mm 1 mps 699 mmHg 84%
    19:00 +24°C° 1.6 mm 1 mps 699 mmHg 95%
    20:00 +24°C° 0.4 mm 1 mps 699 mmHg 96%
    21:00 +24°C° 0.4 mm 1 mps 700 mmHg 97%
    22:00 +23°C° 0.4 mm 1 mps 700 mmHg 98%
    23:00 +23°C° 1.1 mm 1 mps 700 mmHg 98%
    Show more